DW5256 Weather Reports


time (UTC)temp
F
wind
direction
speed
knots
gust
knots
rain 1hr
in
rain 24hr
in
rain mn
in
humidity
%
barometer
mb
20260904025017 68 284 0.0 0.0 0.00 0.00 0.00 74 1010.6
20260904023516 69 278 0.0 0.9 0.00 0.00 0.00 74 1010.5
20260904022014 69 284 0.0 1.7 0.00 0.00 0.00 73 1010.3
20260904020516 71 277 0.0 1.7 0.00 0.00 0.00 71 1010.4
20260904015034 71 277 0.0 1.7 0.00 0.00 0.00 71 1010.4
20260904013534 72 281 0.0 3.5 0.00 0.00 0.00 69 1010.5
20260904012031 72 248 0.0 0.0 0.00 0.00 0.00 69 1010.5
20260904010532 73 265 0.0 6.1 0.00 0.00 0.00 67 1010.6
20260904005031 73 269 0.9 6.1 0.00 0.00 0.00 66 1010.7
20260904003530 74 253 0.0 5.2 0.00 0.00 0.00 64 1010.8
20260904002027 73 309 0.0 10.4 0.00 0.00 0.00 66 1010.6
20260904000528 74 225 0.9 8.7 0.00 0.00 0.00 66 1010.5
20260903235052 75 246 1.7 10.4 0.00 0.00 0.00 64 1010.5
20260903233530 76 292 0.0 10.4 0.00 0.00 0.00 62 1010.6
20260903232024 76 281 2.6 8.7 0.00 0.00 0.00 61 1010.8
20260903230551 77 259 0.9 7.0 0.00 0.00 0.00 61 1010.8
20260903225025 77 264 0.0 10.4 0.00 0.00 0.00 61 1010.9
20260903223521 77 300 1.7 8.7 0.00 0.00 0.00 61 1011.0
20260903222019 79 290 3.5 8.7 0.00 0.00 0.00 58 1011.2
20260903220516 80 267 1.7 8.7 0.00 0.00 0.00 57 1011.2
20260903215030 79 259 0.9 7.0 0.00 0.00 0.00 52 1011.3
20260903213548 79 264 2.6 8.7 0.00 0.00 0.00 52 1011.4
20260903212050 79 260 0.9 9.6 0.00 0.00 0.00 56 1011.5
20260903210529 80 229 2.6 10.4 0.00 0.00 0.00 58 1011.5
20260903205023 79 259 1.7 8.7 0.00 0.00 0.00 61 1011.6
20260903203538 79 272 0.9 7.8 0.00 0.00 0.00 57 1011.4
20260903202033 80 241 0.9 9.6 0.00 0.00 0.00 57 1011.6
20260903200535 80 230 0.0 7.8 0.00 0.00 0.00 57 1011.7
20260903195031 78 273 6.1 10.4 0.00 0.00 0.00 60 1011.8
20260903193531 80 232 0.9 10.4 0.00 0.00 0.00 59 1011.9
20260903192026 79 257 0.9 7.0 0.00 0.00 0.00 60 1012.1
20260903190522 81 234 0.9 4.3 0.00 0.00 0.00 56 1012.2
20260903185131 80 230 0.0 6.1 0.00 0.00 0.00 54 1012.3
20260903183524 79 267 0.0 7.0 0.00 0.00 0.00 51 1012.7
20260903182033 78 278 0.0 7.0 0.00 0.00 0.00 49 1012.8
20260903180523 78 286 0.0 0.0 0.00 0.00 0.00 51 1013.0
20260903175030 77 251 0.0 0.0 0.00 0.00 0.00 49 1013.0
20260903173523 76 325 0.0 0.0 0.00 0.00 0.00 53 1013.1
20260903172051 74 327 0.0 0.0 0.00 0.00 0.00 59 1013.1
20260903170521 72 327 0.0 0.0 0.00 0.00 0.00 62 1013.1
20260903165029 71 326 0.0 0.0 0.00 0.00 0.00 64 1013.1
20260903163518 70 327 0.0 0.0 0.00 0.00 0.00 67 1013.1
20260903162019 69 327 0.0 0.0 0.00 0.00 0.00 68 1013.2
20260903160531 68 326 0.0 0.0 0.00 0.00 0.00 69 1013.4
20260903155018 67 327 0.0 0.0 0.00 0.00 0.00 71 1013.3
20260903153526 66 327 0.0 0.0 0.00 0.00 0.00 72 1013.3
20260903152014 65 327 0.0 0.0 0.00 0.00 0.00 74 1013.3
20260903150524 63 326 0.0 0.0 0.00 0.00 0.00 75 1013.4
20260903145054 62 326 0.0 0.0 0.00 0.00 0.00 76 1013.5
20260903143532 61 325 0.0 0.0 0.00 0.00 0.00 78 1013.2
20260903142032 61 296 0.0 0.0 0.00 0.00 0.00 78 1013.1
20260903140529 60 275 0.0 0.0 0.00 0.00 0.00 79 1013.0
20260903135016 59 273 0.0 0.0 0.00 0.00 0.00 81 1012.7
20260903133526 59 273 0.0 0.0 0.00 0.00 0.00 83 1012.6
20260903132020 59 273 0.0 0.0 0.00 0.00 0.00 84 1012.5
20260903130522 60 273 0.0 0.0 0.00 0.00 0.00 84 1012.5
20260903125017 60 273 0.0 0.0 0.00 0.00 0.00 84 1012.5
20260903123516 60 273 0.0 0.0 0.00 0.00 0.00 85 1012.5
20260903122051 60 273 0.0 0.0 0.00 0.00 0.00 85 1012.4
20260903120550 60 273 0.0 0.0 0.00 0.00 0.00 85 1012.4
20260903115023 60 273 0.0 0.0 0.00 0.00 0.00 85 1012.5
20260903113517 61 273 0.0 0.0 0.00 0.00 0.00 85 1012.5
20260903112033 61 273 0.0 0.0 0.00 0.00 0.00 84 1012.6
20260903110541 61 273 0.0 0.0 0.00 0.00 0.00 84 1012.6
20260903105016 61 273 0.0 0.0 0.00 0.00 0.00 84 1012.7
20260903103516 61 273 0.0 0.0 0.00 0.00 0.00 84 1012.6
20260903102030 61 273 0.0 0.0 0.00 0.00 0.00 84 1012.6
20260903100520 62 273 0.0 0.0 0.00 0.00 0.00 84 1012.7
20260903095028 62 273 0.0 0.0 0.00 0.00 0.00 84 1012.8
20260903093551 62 273 0.0 0.0 0.00 0.00 0.00 84 1012.8
20260903092020 63 273 0.0 0.0 0.00 0.00 0.00 84 1013.1
20260903090517 63 273 0.0 0.0 0.00 0.00 0.00 84 1013.2
20260903085032 63 273 0.0 0.0 0.00 0.00 0.00 84 1013.2
20260903083523 63 273 0.0 0.0 0.00 0.00 0.00 84 1013.4
20260903082037 63 273 0.0 0.0 0.00 0.00 0.00 84 1013.5
20260903080532 63 273 0.0 0.0 0.00 0.00 0.00 84 1013.7
20260903075027 63 273 0.0 0.0 0.00 0.00 0.00 84 1013.5
20260903073525 63 273 0.0 0.0 0.00 0.00 0.00 84 1013.7
20260903072020 64 273 0.0 0.0 0.00 0.00 0.00 83 1013.5
20260903070516 64 273 0.0 0.0 0.00 0.00 0.00 83 1013.6
20260903065046 64 273 0.0 0.0 0.00 0.00 0.00 83 1013.8
20260903063524 64 273 0.0 0.0 0.00 0.00 0.00 82 1013.7
20260903062021 65 273 0.0 0.0 0.00 0.00 0.00 81 1013.7
20260903060519 65 273 0.0 0.0 0.00 0.00 0.00 81 1013.7
20260903055020 65 273 0.0 0.0 0.00 0.00 0.00 81 1013.9
20260903053520 66 273 0.0 0.0 0.00 0.00 0.00 80 1013.9
20260903052037 66 273 0.0 0.0 0.00 0.00 0.00 80 1014.0
20260903050516 66 273 0.0 0.0 0.00 0.00 0.00 80 1014.1
20260903045031 66 273 0.0 0.0 0.00 0.00 0.00 80 1014.1
20260903043527 66 273 0.0 0.0 0.00 0.00 0.00 80 1013.9
20260903042028 67 273 0.0 0.0 0.00 0.00 0.00 79 1013.8
20260903040554 67 273 0.0 0.0 0.00 0.00 0.00 79 1013.8
20260903035028 67 273 0.0 0.0 0.00 0.00 0.00 78 1013.5
20260903033523 67 272 0.0 0.9 0.00 0.00 0.00 77 1013.3
20260903032035 68 271 0.0 0.9 0.00 0.00 0.00 76 1013.2
20260903030515 68 269 0.0 6.1 0.00 0.00 0.00 74 1013.0